Overview Statistics Trail Chart Weather Telemetry Raw packets
 

This is the latest recevied weather packets stored in our database for station/object JH5EWP-13. If no packets are shown the sender has not sent any weather packets the latest 10 day(s).

<< 1 2 3 4 5 6 >>
Time Temp. Humidity Pressure Rain* Wind** Luminosity Snow
1788409340 25.56° C 47% 1001.6 hPa 2.79 mm - - -
1788407542 26.11° C 48% 1001.4 hPa 3.05 mm - - -
1788405741 26.11° C 48% 1001.2 hPa 4.57 mm - - -
1788403942 26.67° C 49% 1001.3 hPa 3.05 mm - - -
1788402140 27.78° C 45% 1001.2 hPa 0.25 mm - - -
1788400342 28.33° C 45% 1001.2 hPa 0 mm - - -
1788398542 29.44° C 45% 1000.9 hPa 0 mm - - -
1788396741 28.89° C 45% 1001 hPa 0 mm - - -
1788394941 28.33° C 45% 1001 hPa 0 mm - - -
1788393140 28.89° C 45% 1001.1 hPa 0 mm - - -
1788391341 29.44° C 45% 1001.1 hPa 0 mm - - -
1788389540 28.89° C 45% 1001 hPa 0 mm - - -
1788387742 27.78° C 45% 1001.4 hPa 0 mm - - -
1788385941 27.22° C 50% 1001.1 hPa 0 mm - - -
1788384141 26.67° C 49% 1000.8 hPa 0 mm - - -
1788382341 26.67° C 49% 1000.5 hPa 0 mm - - -
1788380540 26.67° C 50% 1000 hPa 0 mm - - -
1788378741 26.67° C 50% 1000 hPa 0 mm - - -
1788376940 26.67° C 50% 1000.1 hPa 0 mm - - -
1788375140 26.67° C 50% 1000.3 hPa 0 mm - - -
1788373341 27.22° C 50% 1000.4 hPa 0 mm - - -
1788371541 27.22° C 50% 1000.5 hPa 0 mm - - -
1788369742 27.22° C 50% 1000.6 hPa 0 mm - - -
1788367941 27.22° C 50% 1000.7 hPa 0 mm - - -
1788366141 27.78° C 45% 1000.5 hPa 0 mm - - -

* Rain latest hour (hover to see other rain measurements)
** Current wind speed in m/s (hover to see current wind gust speed)